Weather History for Altus AFB, OK

Change the Weather History Date:

Thursday, November 22, 2012

  Actual Average Record
Temperature  
Mean Temperature 66 °F -  
Max Temperature 81 °F 56 °F 81 °F (2012)
Min Temperature 51 °F 34 °F 21 °F (2007)
Cooling Degree Days 1    
Growing Degree Days 16 (Base 50)    
Moisture  
Dew Point 46 °F    
Average Humidity 55    
Maximum Humidity 90    
Minimum Humidity 31    
Precipitation  
Precipitation 0.01 in - - ()
Sea Level Pressure  
Sea Level Pressure 29.98 in    
Wind  
Wind Speed 10 mph (SSE)    
Max Wind Speed 29 mph    
Max Gust Speed 38 mph    
Visibility 10 miles    
Events      
Averages and records for this station are not official NWS values.
T = Trace of Precipitation, MM = Missing Value Source: NWS Daily Summary

Daily Weather History Graph

Daily Weather History Graph

Search for Another Location

Airport:

Trip Planner

Search our weather history database for the weather conditions in past years. The results will help you decide how hot, cold, wet, or windy it might be!

Date:

Astronomy

Nov. 22, 2012 Rise Set
Actual Time 7:18 AM CST 5:28 PM CST
Civil Twilight 6:50 AM CST 5:55 PM CST
Nautical Twilight 6:20 AM CST 6:26 PM CST
Astronomical Twilight 5:49 AM CST 6:56 PM CST
Moon 2:03 PM CST (11/22) 1:51 AM CST (11/22)
Length of Visible Light 11h 04m
Length of Day
10h 10m
Waxing Gibbous, 71% of the Moon is Illuminated
Nov 22
Waxing Gibbous
Nov 28
Full
Dec 6
Last Quarter
Dec 13
New
Dec 19
First Quarter

Hourly Weather History & Observations

Time (CST) Temp. Dew Point Humidity Pressure Visibility Wind Dir Wind Speed Gust Speed Precip Events Conditions
12:55 AM 59.0 °F 48.9 °F 69% 29.98 in 10.0 mi SSE 5.8 mph - N/A   Clear
1:55 AM 59.2 °F 49.3 °F 70% 29.98 in 10.0 mi SSE 8.1 mph - N/A   Clear
2:55 AM 58.5 °F 49.3 °F 72% 29.97 in 10.0 mi SE 5.8 mph - N/A   Clear
3:55 AM 57.7 °F 49.3 °F 73% 29.96 in 10.0 mi East 3.5 mph - N/A   Clear
4:55 AM 54.0 °F 48.6 °F 82% 29.96 in 10.0 mi SE 6.9 mph - N/A   Scattered Clouds
5:55 AM 54.1 °F 48.9 °F 82% 29.95 in 10.0 mi SE 9.2 mph - N/A   Scattered Clouds
6:55 AM 51.3 °F 48.4 °F 90% 29.96 in 10.0 mi ESE 8.1 mph - N/A   Clear
7:55 AM 52.0 °F 49.3 °F 90% 29.98 in 10.0 mi ESE 8.1 mph - N/A   Clear
8:55 AM 56.7 °F 51.3 °F 82% 29.98 in 10.0 mi SSE 9.2 mph - N/A   Clear
9:55 AM 65.8 °F 51.4 °F 60% 29.96 in 10.0 mi South 12.7 mph - N/A   Clear
10:55 AM 70.3 °F 52.2 °F 52% 29.96 in 10.0 mi SSW 17.3 mph - N/A   Clear
11:55 AM 74.3 °F 52.5 °F 46% 29.93 in 10.0 mi SSW 16.1 mph 24.2 mph N/A   Clear
12:55 PM 77.4 °F 51.8 °F 41% 29.89 in 10.0 mi SW 16.1 mph - N/A   Clear
1:55 PM 79.7 °F 51.1 °F 37% 29.87 in 10.0 mi SSW 15.0 mph - N/A   Clear
2:55 PM 80.8 °F 50.9 °F 35% 29.86 in 10.0 mi SW 16.1 mph 21.9 mph N/A   Clear
3:55 PM 81.0 °F 48.2 °F 32% 29.87 in 10.0 mi SSW 15.0 mph - N/A   Clear
4:55 PM 78.1 °F 49.1 °F 36% 29.90 in 10.0 mi SSW 9.2 mph - N/A   Clear
5:55 PM 74.5 °F 46.4 °F 37% 29.94 in 10.0 mi NNW 4.6 mph - N/A   Clear
6:55 PM 64.6 °F 41.2 °F 42% 29.98 in 10.0 mi NNW 5.8 mph - N/A   Clear
7:55 PM 63.1 °F 31.6 °F 31% 30.03 in 10.0 mi NNE 11.5 mph - N/A   Clear
8:55 PM 65.1 °F 37.4 °F 36% 30.06 in 10.0 mi North 21.9 mph 31.1 mph N/A   Clear
9:55 PM 64.4 °F 36.7 °F 36% 30.11 in 10.0 mi NNE 23.0 mph 38.0 mph 0.01 in   Clear
10:55 PM 60.8 °F 35.6 °F 39% 30.15 in 10.0 mi NNE 28.8 mph 38.0 mph N/A   Clear
11:55 PM 57.9 °F 34.0 °F 41% 30.18 in 10.0 mi NNE 26.5 mph 36.8 mph N/A   Clear